#timestamp,LO_Frequency,Hit,StdDev 
1673287215.1,286047000.9,N
1673287216.0,286047000.9,N
1673287235.8,286047000.5,N
1673287255.6,286047000.9,N
1673287275.5,286046998.8,N
1673287295.3,286046998.8,N
1673287315.2,286047000.0,N
1673287335.9,286047000.5,N
1673287355.7,286047001.0,N
1673287375.6,286047000.7,N
1673287395.4,286047000.7,N
1673287415.3,286046998.5,N
1673287435.1,286047000.4,N
1673287436.0,286047000.4,N
1673287455.8,286047000.6,N
1673287475.7,286047000.7,N
1673287495.5,286047001.0,N
1673287515.3,286046998.2,N
1673287535.2,286046999.0,N
1673287555.0,286047001.1,N
1673287555.9,286047001.1,N
1673287575.8,286046998.1,N
1673287595.6,286047000.8,N
1673287615.4,286047000.5,N
1673287635.3,286046999.7,N
1673287655.1,286047000.1,N
1673287675.8,286047000.2,N
1673287695.7,286047002.3,N
1673287715.5,286047002.4,N
1673287735.4,286047002.8,N
1673287755.2,286047002.2,N
1673287775.0,286047001.3,N
1673287775.9,286047001.3,N
1673287795.8,286047002.0,N
1673287815.6,286047002.3,N
1673287835.4,286047002.4,N
1673287855.3,286047000.3,N
1673287875.1,286047000.0,N
1673287895.9,286047002.2,N
1673287915.7,286047005.9,Y
1673287935.5,286047005.2,P
1673287955.4,286047005.4,N
1673287975.2,286047012.9,P
1673287995.1,286047014.0,Y
1673287996.0,286047014.0,P
1673288015.8,286047003.4,N
1673288035.6,286047001.6,N
1673288055.5,286046999.8,N
1673288075.3,286047000.4,N
1673288095.1,286047000.4,N
1673288115.9,286047001.0,N
1673288135.7,286046998.3,N
1673288155.6,286046999.6,N
1673288175.4,286046995.4,N
1673288195.2,286046993.5,N
1673288215.1,286046991.8,N
1673288216.0,286046991.8,N
1673288235.8,286046992.2,N
1673288255.6,286046992.9,N
1673288275.5,286046992.8,N
1673288295.3,286046990.9,N
1673288315.2,286046991.5,N
1673288335.9,286046989.4,N
1673288355.7,286046989.7,N
1673288375.6,286046987.9,N
1673288395.4,286046988.4,N
1673288415.2,286046988.3,N
1673288435.1,286046987.9,N
1673288436.0,286046987.9,N
1673288455.8,286046986.0,N
1673288475.7,286046986.2,N
1673288495.5,286046985.6,N
1673288515.3,286046987.7,N
1673288535.2,286046985.6,N
1673288555.9,286046986.0,N
1673288575.7,286046985.7,N
1673288595.6,286046985.5,N
1673288615.4,286046988.4,N
1673288635.2,286046986.2,N
1673288655.1,286046986.4,N
1673288656.0,286046986.4,Y
1673288675.8,286046997.2,P
1673288695.7,286046996.8,N
1673288715.5,286046997.4,N
1673288735.3,286046996.8,N
1673288755.2,286046997.7,N
1673288775.0,286046996.8,N
1673288775.9,286046996.8,N
1673288795.8,286046996.7,N
1673288815.6,286046996.8,N
1673288835.4,286046997.1,N
1673288855.3,286046997.2,N
1673288875.1,286046997.0,N
1673288895.8,286046997.8,N
1673288915.7,286046996.8,N
1673288935.5,286046996.9,N
1673288955.4,286046998.6,N
1673288975.2,286046998.6,N
1673288995.0,286046998.4,N
1673288995.9,286046998.4,N
1673289015.8,286046999.3,N
1673289035.6,286046996.9,N
1673289055.4,286046996.6,N
1673289075.3,286046998.4,N
1673289095.1,286047000.8,N
1673289115.9,286047000.3,N
1673289135.7,286047000.9,N
1673289155.5,286047000.6,N
1673289175.4,286047001.0,N
1673289195.2,286046998.7,N
1673289215.0,286047000.5,N
1673289215.9,286047000.5,N
1673289235.8,286047000.6,N
1673289255.6,286047001.1,N
1673289275.5,286046998.1,N
1673289295.3,286047001.0,N
1673289315.1,286047001.1,N
1673289335.9,286047000.6,N
1673289355.7,286047000.1,N
1673289375.6,286047001.0,N
1673289395.4,286046999.9,N
1673289415.2,286047000.0,N
1673289435.1,286047000.4,N
1673289436.0,286047000.4,N
1673289455.8,286047011.9,Y
1673289475.7,286047002.8,P
1673289495.5,286047001.9,N
1673289515.3,286047002.1,N
1673289535.2,286047002.4,N
1673289555.0,286047001.6,N
1673289555.9,286047001.6,N
1673289575.8,286047002.2,N
1673289595.6,286047001.5,N
1673289615.4,286047001.5,N
1673289635.3,286047002.0,N
1673289655.1,286047001.5,N
1673289675.9,286047002.6,Y
1673289695.7,286047000.7,P
1673289715.5,286047001.1,N
1673289735.4,286047000.9,N
1673289755.2,286047000.9,N
1673289775.0,286047001.0,N
1673289775.9,286047001.0,Y
1673289795.8,286047000.8,P
1673289815.6,286046998.1,P
1673289835.5,286046998.4,N
1673289855.3,286046998.5,N
1673289875.1,286046998.5,N
1673289895.9,286047001.0,N
1673289915.7,286047000.8,N
1673289935.6,286047000.0,N
1673289955.4,286047000.4,N
1673289975.2,286047002.6,N
1673289995.1,286047001.9,N
1673289996.0,286047001.9,N
1673290015.8,286047000.2,N
1673290035.7,286047002.6,N
1673290055.5,286047002.3,N
1673290075.3,286047002.4,N
1673290095.2,286047002.7,N
1673290115.0,286046999.7,N
1673290115.9,286046999.7,N
1673290135.8,286047002.6,N
1673290155.6,286047000.9,N
1673290175.4,286047000.0,N
1673290195.3,286047000.1,N
1673290215.1,286047002.4,N
1673290235.9,286047002.1,N
1673290255.7,286047001.8,N
1673290275.5,286047002.0,N
1673290295.4,286046999.8,N
1673290315.2,286046999.8,N
1673290335.0,286046999.7,N
1673290336.0,286046999.7,N
1673290355.8,286047002.8,N
1673290375.6,286047002.4,N
1673290395.5,286046999.7,N
1673290415.3,286047002.4,N
1673290435.1,286047002.5,N
1673290455.9,286047002.5,N
1673290475.7,286047002.5,N
1673290495.6,286047002.7,N
1673290515.4,286047002.1,N
1673290535.2,286047000.1,N
1673290555.1,286046999.7,N
1673290556.0,286046999.7,N
1673290575.8,286046999.7,N
1673290595.7,286047002.7,N
1673290615.5,286047002.3,N
1673290635.3,286047002.3,N
1673290655.2,286047001.9,N
1673290675.0,286047001.9,N
1673290675.9,286047001.9,N
1673290695.8,286047001.9,N
1673290715.6,286047001.9,N
1673290735.4,286047002.7,N
1673290755.3,286047000.2,N
1673290775.1,286047000.5,N
1673290795.9,286047002.6,N
